This is the latest recevied weather packets stored in our database for station/object SV9TNF-52. If no packets are shown the sender has not sent any weather packets the latest 10 day(s).
| Time | Temp. | Humidity | Pressure | Rain* | Wind** | Luminosity | Snow |
|---|---|---|---|---|---|---|---|
| 1788659879 | 22.78° C | 44% | 1021.7 hPa | 0 mm | 8.05 m/s, 227° | - | - |
| 1788659579 | 22.22° C | 44% | 1021.7 hPa | 0 mm | 5.81 m/s, 210° | - | - |
| 1788659279 | 22.22° C | 44% | 1021.7 hPa | 0 mm | 7.15 m/s, 263° | - | - |
| 1788658978 | 22.78° C | 44% | 1021.7 hPa | 0 mm | 8.05 m/s, 203° | - | - |
| 1788658678 | 22.78° C | 44% | 1021.7 hPa | 0 mm | 6.71 m/s, 187° | - | - |
| 1788658378 | 22.22° C | 45% | 1021.7 hPa | 0 mm | 6.26 m/s, 199° | - | - |
| 1788658078 | 22.22° C | 45% | 1021.7 hPa | 0 mm | 7.15 m/s, 217° | - | - |
| 1788657778 | 22.78° C | 45% | 1021.7 hPa | 0 mm | 6.26 m/s, 150° | - | - |
| 1788657478 | 22.22° C | 45% | 1021.7 hPa | 0 mm | 7.6 m/s, 177° | - | - |
| 1788657178 | 22.78° C | 45% | 1021.7 hPa | 0 mm | 7.15 m/s, 189° | - | - |
| 1788656878 | 22.22° C | 45% | 1021.7 hPa | 0 mm | 6.71 m/s, 241° | - | - |
| 1788656578 | 22.78° C | 45% | 1021.7 hPa | 0 mm | 10.28 m/s, 215° | - | - |
| 1788656278 | 22.22° C | 46% | 1021.7 hPa | 0 mm | 9.83 m/s, 181° | - | - |
| 1788655978 | 22.22° C | 46% | 1021.7 hPa | 0 mm | 9.39 m/s, 203° | - | - |
| 1788655677 | 22.22° C | 47% | 1021.7 hPa | 0 mm | 6.71 m/s, 184° | - | - |
| 1788655378 | 22.22° C | 48% | 1021.7 hPa | 0 mm | 6.26 m/s, 258° | - | - |
| 1788655077 | 22.22° C | 49% | 1021.7 hPa | 0 mm | 8.49 m/s, 260° | - | - |
| 1788654777 | 21.67° C | 50% | 1021.7 hPa | 0 mm | 6.26 m/s, 242° | - | - |
| 1788654478 | 22.22° C | 50% | 1021.7 hPa | 0 mm | 5.36 m/s, 212° | - | - |
| 1788654177 | 22.22° C | 51% | 1021.7 hPa | 0 mm | 8.49 m/s, 173° | - | - |
| 1788653877 | 22.22° C | 51% | 1021.7 hPa | 0 mm | 5.81 m/s, 249° | - | - |
| 1788653577 | 22.22° C | 51% | 1021.7 hPa | 0 mm | 8.05 m/s, 145° | - | - |
| 1788653277 | 22.22° C | 52% | 1022 hPa | 0 mm | 8.49 m/s, 180° | - | - |
| 1788652976 | 22.22° C | 51% | 1022 hPa | 0 mm | 8.05 m/s, 192° | - | - |
| 1788652676 | 22.78° C | 51% | 1022 hPa | 0 mm | 11.62 m/s, 200° | - | - |
* Rain latest hour (hover to see other rain measurements)
** Current wind speed in m/s (hover to see current wind gust speed)